User: anonymous   Login
Location: Angwan Shehu
(11.2514°N, 7.4613°E)
Time: 07:51:11
(UTC+00:00)
Language:

Tiros 1 despin weight - Orbit

View from above orbital plane
View from above orbital plane
View from above satellite
View from above satellite

Ground track
Ground track

The orbit data is extracted from the following two-line orbital elements,

1   115U 60002D   21109.54390679  .00000235  00000-0  54832-4 0  9997
2   115  48.1663 242.2041 0034419 159.0446 201.1886 14.83746472258425
Epoch (UTC): 19 April 2021 13:03:13
Eccentricity: 0.0034419
inclination: 48.1663°
perigee height: 593 km
apogee height: 641 km
right ascension of ascending node: 242.2041°
argument of perigee: 159.0446°
revolutions per day: 14.83746472
mean anomaly at epoch: 201.1886°
orbit number at epoch: 25842

The dashed part of the orbit path shows where the satellite is in the earth's shadow,  

DLR